Tracking 29058 objects as of 20-Jun-2024
HD Live streaming from Space Station
objects crossing your sky now

DELTA 1 DEB

Track DELTA 1 DEB now!
10-day predictions


NORAD ID: 8956
Int'l Code: 1975-004AN
Perigee: 619.3 km
Apogee: 658.2 km
Inclination: 98.3 °
Period: 97.3 minutes
Semi major axis: 7009 km
RCS: 1.9274 m2 (large)
Launch date: January 22, 1975
Source: United States (US)
Launch site: AIR FORCE WESTERN TEST RANGE (AFWTR)

Note: This is SATELLITE DEBRIS
Your satellite tracking list
Your tracking list is empty




NASA's NSSDC Master Catalog

Two Line Element Set (TLE):
1 08956U 75004AN  24171.88839331  .00002985  00000-0  40632-3 0  9994
2 08956  98.3051 314.7368 0027721 102.3252 258.1064 14.79280343554126
Source of the keplerian elements: AFSPC